This demonstration page uses our WeatherBlox Daily Observations layout. Learn more.

Left ArrowRight Arrow

39.08367, -84.50855

Hourly Observations for August 15, 2020

Temp ( °F °C ) Dew Point ( °F °C ) Humidity (%) Winds ( mph kmh ) Pressure ( in mb ) Visibility ( mi km ) Precip ( " mm )
12:53 am 00:53 Cloudy 71 21.7 67 19.4 87 87 NE 7 11 29.94 1014 10 16 0.00 0.00
1:53 am 01:53 Clear 70 21.1 66 18.9 87 87 NE 5 7 29.93 1014 10 16 N/A
2:53 am 02:53 Clear 69 20.6 66 18.9 90 90 N N/A 29.90 1013 10 16 N/A
3:53 am 03:53 Clear 67 19.4 66 18.9 97 97 N N/A 29.90 1012 8 13 N/A
4:53 am 04:53 Mostly Cloudy 68 20 66 18.9 93 93 N N/A 29.91 1013 10 16 N/A
5:53 am 05:53 Cloudy 70 21.1 66 18.9 87 87 N 6 9 29.92 1013 10 16 N/A
6:53 am 06:53 Cloudy 71 21.7 67 19.4 87 87 N N/A 29.92 1013 10 16 N/A
7:53 am 07:53 Mostly Cloudy 71 21.7 67 19.4 87 87 E 3 6 29.92 1013 10 16 N/A
8:53 am 08:53 Mostly Cloudy 74 23.3 66 18.9 76 76 NE 5 7 29.93 1013 10 16 N/A
9:53 am 09:53 Partly Cloudy 77 25 68 20 74 74 NNE 3 6 29.93 1014 10 16 N/A
10:53 am 10:53 Mostly Cloudy 78 25.6 67 19.4 69 69 VRB 3 6 29.93 1014 10 16 N/A
11:53 am 11:53 Partly Cloudy 81 27.2 66 18.9 61 61 N N/A 29.92 1013 10 16 N/A
12:53 pm 12:53 Sunny 83 28.3 67 19.4 59 59 E 5 7 29.92 1013 10 16 N/A
1:53 pm 13:53 Partly Cloudy 85 29.4 67 19.4 55 55 NW 9 15 29.92 1013 10 16 N/A
2:53 pm 14:53 Partly Cloudy 87 30.6 67 19.4 51 51 N 10 17 29.90 1013 10 16 N/A
3:53 pm 15:53 Partly Cloudy 86 30 67 19.4 53 53 NE 9 15 29.88 1012 10 16 N/A
4:53 pm 16:53 Partly Cloudy 86 30 67 19.4 53 53 ENE 8 13 29.87 1011 10 16 N/A
5:53 pm 17:53 Mostly Cloudy 86 30 69 20.6 57 57 N N/A 29.86 1011 10 16 N/A
6:53 pm 18:53 Cloudy with Thunderstorms 79 26.1 71 21.7 77 77 WNW 3 6 29.87 1012 6 10 0.06 1.52
7:18 pm 19:18 Mostly Cloudy with Nearby Thunderstorms 76 24.4 73 22.8 91 91 S 3 6 29.87 1012 9 14 0.00 0.00
7:43 pm 19:43 Mostly Cloudy 76 24.4 73 22.8 91 91 N N/A 29.87 1012 10 16 0.00 0.00
7:53 pm 19:53 Mostly Sunny 76 24.4 73 22.8 91 91 S 3 6 29.88 1012 10 16 0.00 0.00
8:53 pm 20:53 Partly Cloudy with Light Rain 74 23.3 72 22.2 94 94 N N/A 29.90 1013 7 11 0.00 0.00
9:53 pm 21:53 Mostly Cloudy with Mist and Fog 73 22.8 71 21.7 94 94 N N/A 29.92 1013 5 8 0.00 0.00
10:53 pm 22:53 Mostly Clear with Mist and Fog 72 22.2 71 21.7 97 97 SW 3 6 29.93 1014 4 6 N/A
11:11 pm 23:11 Mostly Clear with Mist and Fog 71 21.7 70 21.1 96 96 N N/A 29.94 1014 2 2 N/A
11:46 pm 23:46 Mostly Cloudy with Mist and Fog 71 21.7 71 21.7 100 100 N N/A 29.93 1013 3 5 N/A
11:53 pm 23:53 Partly Cloudy with Mist and Fog 71 21.7 70 21.1 96 96 N N/A 29.93 1013 5 8 N/A

Powered by AerisWeather